[問卦] 有沒有生日一個人的八卦

看板 Gossiping
時間
留言 則留言,234人參與討論
推噓 221推 4噓 25→
加入最愛文章備份
小弟今天生日惹 但只能一個人坐在電腦前上PTT 回想起去年生日那開心的感覺 與今年一個人發呆的光景 好想哭喔 有沒有生日好想哭的八卦? 拜託祝我生日快樂 每11推發稅前100P發到99推 QQ 連P幣都窮 -- ※ 發信站: 批踢踢實業坊(ptt.cc), 來自: 36.229.133.189 ※ 文章網址: https://www.ptt.cc/bbs/Gossiping/M.1547280354.A.06F.html
1Fstage0121: 前 01/12 16:06
2Fmarszues: 錢 01/12 16:06
3Fswedrf0112: 一起生日快樂! 01/12 16:06
4Fleoqqqoel: 生日快樂 錢不用給我了 01/12 16:06
5Fwilly771116: 生日快樂 01/12 16:06
6Fhenrycc: 滾 01/12 16:06
7Fqaz0816: 生日快樂~ 01/12 16:06
8Fpeterlin495: 我也剛好今天生日@@ 生日同樂吧XD 01/12 16:06
9Flovekiqoo: 生日快樂 01/12 16:07
10Fzxp910608: 生日快樂 01/12 16:07
11Fpenchiman: 生日快樂 01/12 16:07
kaworu0612: 生日快樂 不用P幣 01/12 16:07
12FPlumpy: 生日快樂 01/12 16:07
13Fgreedypeople: 嗆我嗆夠了沒 好啦生日快樂 01/12 16:07
14FYaLingYin: 生日快樂~ 01/12 16:07
15Fa27783322: 生日快樂啦 01/12 16:07
16Fnewland: 生日快樂~ 01/12 16:07
17Fcolor3258: 不拿p幣 生日快樂!!! 01/12 16:07
18Fxoops5570: 生日快樂 01/12 16:07
19Flinda17a3: 怎樣啦怎樣 01/12 16:07
20Fa27783322: 不用p幣 01/12 16:07
21Feris231: 錢 01/12 16:08
22Fggian123: 生日快樂 01/12 16:08
23Fromeie06: 你在台中的話 我去找你啊 01/12 16:08
scemoorso: 生日快樂 01/12 16:08
24Fcwet: 生日快樂 01/12 16:08
25Fnewstarting: 好啦生日快樂啦 在台北的話可以陪你一下喔 01/12 16:09
26Fray5803: 生日快樂,我早你一天生日QQ 01/12 16:09
27Fa23460701: 推推 01/12 16:10
28Farchon: 太年輕了,習慣之後會覺得一個人也很好唷~ ^^" 01/12 16:10
29Fymx3xc: 生日快樂 01/12 16:10
30FCAVLBJ: 生日快樂啦肥宅 01/12 16:10
31Fespresso1: 生日快樂 不用P幣 01/12 16:11
32Flove21016: 生日快樂 01/12 16:11
33Fdklash: 可憐 生日還要發錢引人注意 真悲哀 01/12 16:11
34FLCH1205: 生日快樂 01/12 16:11
35FZ86526: QQ 01/12 16:12
emblakenta: QQ 別難過 生日快樂 01/12 16:12
36Fheyd: 錢 01/12 16:12
37Frttlac: 推 01/12 16:12
38Fqscxz: 我 01/12 16:12
39FYsWen: 生日快樂啊 01/12 16:13
40Fvallwesture: 生日快樂 01/12 16:13
41Fqqsscc11220: 推 01/12 16:13
42Fning410: 生日快樂 01/12 16:13
43Fsatzu0627: 生日快樂! 01/12 16:13
44Fjim0427: 推 01/12 16:13
45FPhimosis373: 生日快樂 01/12 16:13
qscxz: 我 01/12 16:13
46FNeoHideo: 干我P4 01/12 16:14
47Fs1001326: 生日快樂拉~ 01/12 16:14
48Fwendy85625: 生日快樂 01/12 16:14
49Ftheeht: 謝謝 01/12 16:14
50Fmichael8813: 生日快樂 01/12 16:14
51Fyuechen: 生快~ 01/12 16:14
52Fcue: 生日快樂,我跟你同一天唷! 01/12 16:15
53Forccro: 生日快樂 01/12 16:15
54Fdambuster: 生日快樂 01/12 16:15
55Fkerorobear: 我只想要錢 嘻嘻 孤兒沒生日 你有就該偷笑 01/12 16:15
56Fcreepy: 推 01/12 16:15
RaverIan: 生日快樂ㄛ 01/12 16:15
57Fhankhui3175: 生日快樂 01/12 16:16
58Faaa5118: $0$ 01/12 16:16
59Fboomlizard: 生日快樂 01/12 16:17
60Fdanny310156: 生日快樂 01/12 16:18
61Fjames732: 好啦生日快樂 01/12 16:18
62Fronniegogo: 生日快樂 01/12 16:19
63Fneo999: 生日快樂~! 01/12 16:19
64Fsaudinos: 生日快樂,不用發錢啦 01/12 16:20
65Fleo921080931: 錢 01/12 16:20
66Fjason0829: 習慣了就好 01/12 16:20
67FZeppeLee: 推 01/12 16:21
joehsieh13: 生日快樂啦 我也今天生日 也一樣沒局啦 01/12 16:21
68Fcbh721: 生日快樂 01/12 16:21
69Fellisteng145: 生日快樂 01/12 16:21
70Fa06121997: 錢 01/12 16:21
71FKitakami: 可撥 肥宅悲歌 01/12 16:21
72Fmicni2000: 森日快熱 01/12 16:22
73Fcloudycat: 生日快樂 01/12 16:22
74Fleo20335: 錢 01/12 16:22
75Facer0327: 生日快樂 01/12 16:23
76Fa620100: 生日快樂 01/12 16:23
77Fserendipity: 肥宅台男悲歌 01/12 16:24
mician0989: 生日快樂啊 01/12 16:24
78Fdreamer1001: 生日快樂 01/12 16:24
79Fshengvia: 生日快樂 01/12 16:24
80Fhung22330: 生日快樂 01/12 16:25
81Fz26016705: 推 01/12 16:25
82Fkennyk5928: 生日快樂啦 01/12 16:25
83Fjinnij03879: 推推 01/12 16:25
84Fd970306: 生日快樂 01/12 16:26
85Ferger0714: 推 01/12 16:26
86Fmorikdash: 推 01/12 16:26
87Fdance2941: 推 01/12 16:26
88Fyoshro: 生日快樂 01/12 16:27
89Fdann255181: 生日快樂 01/12 16:27
zxcxxx: 生日快樂 01/12 16:27
90Fecho50034: 生日快樂~ 01/12 16:28
91Fchungyiju: 生日快樂 01/12 16:28
92Fcatwalk456: 錢錢錢 01/12 16:28
93FIsonaEi: 生日快樂 01/12 16:28
94Fmichael71206: 生日快樂 01/12 16:28
95Fasdzxc0923: 錢 01/12 16:29
96Fbenson20084: 推生日快樂 01/12 16:29
97Ff26227279: ㄊ 01/12 16:29
98FBaLaBomb: 生快 01/12 16:29
99Fbt123456750: 生日快樂 01/12 16:30
100Fiamjohndoo: 生日快樂 01/12 16:30
windowxp: 推 01/12 16:31 @ 以上紅底標記9位,每人100P(稅前)發送完成! by AutoGiveP 2.11
101Fhyisong: 生日快樂 錢 01/12 16:31
102Fqscesz943: Qq 01/12 16:31
103Fpopeyewowo: 生日快樂 01/12 16:32
104Fa594020419: 推,生日快樂~ 01/12 16:32
105Fqaz5531425: 生日快樂 01/12 16:33
106Fgeoffrey2012: 生日快樂 01/12 16:33
107Famigowei: 生日快樂 01/12 16:33
108Fflytofuture: 生日快樂 01/12 16:34
109Fkgb1019: 幫你免費推暴啦 01/12 16:34
110Floveplay25: 生日快樂 01/12 16:35
111Fjetzake: 爆啦 生日快樂 01/12 16:35
112Fu57789456: 生日快樂 01/12 16:35
113Fallen40512: 推 01/12 16:35
114Fdarkestwind: 生日快樂 01/12 16:35
115Fallen40512: 生日快樂 01/12 16:36
116FAristotle: 推 01/12 16:37
117Fhappy369852: 推 01/12 16:38
118FWTF666: 生日快樂~ 01/12 16:38
119FDennishao: 推 01/12 16:39
120Fa0939877325: 生日一個人不是常態嗎嗚嗚嗚嗚嗚嗚 01/12 16:39
121FTHYOP: 生日快樂 快去抱你媽 他辛苦生你 01/12 16:40
122Faugustlin: 推 生日快樂 01/12 16:40
123Fsolomon586: 生日快樂 01/12 16:41
124FKaCJ945: 嗨 01/12 16:41
125Fbigyusi: 魔羯 生日快樂 01/12 16:43
126Fhyun1313: 生日快樂 01/12 16:44
※ 編輯: poorcookie (36.229.133.189), 01/12/2019 16:44:43
127Fsnsi: 生日快樂 01/12 16:45
128Fmynewid: 太晚來 01/12 16:45
129Ffabooo: 生日快樂 01/12 16:46
130Flxktruemind: 其實等你生日時有人陪,周遭的朋友喊壽星要你請客 01/12 16:46
131Flxktruemind: 你就會想要一個人過了(親身經歷 01/12 16:46
132Fd123xxx: 生日快樂 習慣就好 01/12 16:47
133FDoublecute: 生日快樂 01/12 16:48
134FMIMO7617: 以後就會習慣一個人生活 01/12 16:48
135Fwumun5904: 生日快樂QQ 01/12 16:48
136FTienWo: 生日快樂 01/12 16:49
137Fyeshing: 生日快樂啊 我生日時一個人到日本玩也還好啊 01/12 16:50
138Ftalisker: Happy birthday 01/12 16:51
139Fpolo608: 生日快樂 01/12 16:51
140Fsssakana: 生日快樂 01/12 16:52
141FFLy60169: 生日快樂 我能理解你的感受 不用給我錢了 01/12 16:52
142Fq033756345: 同天生日!生日快樂啊! 01/12 16:53
143FGGINDOWBOW: 生日快樂 你不是只有一個人拍拍 01/12 16:53
144FIcyrime: 推 01/12 16:54
145Fde092112: 我也生日惹 生日快樂 01/12 16:54
146Fkevinlee833: 推 01/12 16:54
147Fwei771988: 錢 01/12 16:54
148Fproxil: 生日快樂 01/12 16:54
149Fwowme: 同為魔羯座,祝你生日快樂! 01/12 16:56
150Fcvsugar: 生日快樂 01/12 16:58
151Fjoyce1590: 生日快樂 01/12 16:59
152Faed14607: 生日快樂~~~ 01/12 16:59
153Ffunster: 生日快樂~去大吃讓自己爽一下 01/12 16:59
154Fsilentjy: 推推 你不孤單啊! 01/12 17:00
155Fjbmm: 生日快樂 很多鄉民陪你 01/12 17:06
156Fgreatoreo: 生日快樂! 01/12 17:07
157Fwill1031lu: 生日快樂~ 01/12 17:07
158Fprice322370: 我生日也都是一個人過 沒關係 01/12 17:07
159Fjoechen03: 生日快樂 01/12 17:10
160Fworld4jason: 同天有沒有加發XD 01/12 17:11
161Fchihchin0112: 我也是今天生日,生日快樂 01/12 17:11
162Ffransice7: 個版? 01/12 17:11
163Fjkl456: 自從老了就沒怎在過生日了 完全不知一人過哭點在哪 01/12 17:13
164Fndstony: 錢 01/12 17:13
165Fapple85369: 我也生日^^生日快樂 01/12 17:16
166FF2012: 我從國小之後就沒在過生日 沒甚麼好難過的吧.... 01/12 17:18
167Fproveying: 生日快樂~ 01/12 17:18
168Fpecko: 生日快樂!我後天生日,但已經註定要上班到半夜,這樣有安 01/12 17:22
169Fpecko: 慰到你嗎XD 01/12 17:22
170FNEWSTAY: 好啦 生日快樂 01/12 17:23
171Fyaguara: 生日快樂 p幣就不用了 01/12 17:26
172Fs89013349: 簽 01/12 17:26
173FET01: 生日快樂 01/12 17:31
175Fjayto: 生日快樂哦 01/12 17:35
176Fjrr661: 生日快樂 摳憐 01/12 17:35
177Fals8855: 生日快樂 01/12 17:35
178Fooxxman: Happy Birthday 01/12 17:36
179Fkara21: 生日快樂 01/12 17:37
180FRmoon: 還好8,習慣一個人就好了,不用特別慶祝拉,你每天不也都一 01/12 17:44
181FRmoon: 個人 01/12 17:44
182Fabc21086999: 八卦是你是摩羯座的 01/12 17:46
183Faceapple: 生日快樂 我好朋友也今天生日呢 01/12 17:50
184FNinja86: 同天推推 01/12 17:51
185FTheBoss: 生日快樂~ 01/12 17:59
186Fwirecut: 生日快樂 01/12 18:03
187FLPCbaimlly: 生日快樂 01/12 18:03
188Fneo0609: 生日快樂 01/12 18:03
189FjiangX: 嗯嗯 01/12 18:07
190Fmokissru: 我今天也生日 發錢給我XD 01/12 18:11
191Fx7834210: 我幾乎每年生日都自己過 沒事啊? 01/12 18:13
192Fyoyingyo: 生日快樂 01/12 18:16
193Ftheteddybear: hbd 01/12 18:17
194Fsmartjames: 推 01/12 18:19
195Fkkk0925: 生日快樂~ 01/12 18:22
196Fblack1x2y3z: 錢 01/12 18:22
197Faoc7175: 尻一發阿 01/12 18:23
198Fhomepark: 生日快樂 01/12 18:28
199Fjason3610: 推 01/12 18:28
200FTemplar47: 生日快樂 01/12 18:28
201Flalaow: 我也今天生日耶Happy birthday 01/12 18:32
202FPigBlood: 好啦生日快樂 01/12 18:34
203FYOOI: 森日快樂 01/12 18:37
204Fgrasstroll: 錢 01/12 18:38
205Fa7234869: 同感 生日快樂喔 01/12 18:40
206Frc56321987: 生 01/12 18:42
207Fbluefavo: 生日快樂 01/12 18:47
208Flustdaemon: 才孤單一年 01/12 18:53
209Fhhh1243: 推 生日快樂 $$$ 01/12 19:00
210Fdimvim: 生日快樂 01/12 19:02
211Fxwhy: 生日快樂$$ 01/12 19:02
212Fxu3720: 生日快樂啦~起碼你去年是開心的 01/12 19:06
213Fcphs102007: 我生日的時候除了家人跟女友之外 也沒其他朋友幫我過 01/12 19:10
214Fcphs102007: 啊 我覺得生日就只是一個比平日多一點意義的日子 01/12 19:10
215FSecret69: 你不孤單 01/12 19:10
216Fcphs102007: 生日快樂 一個人沒什麼不好的 01/12 19:10
217Fggoso4501: 年輕人才會在意生日一個人 01/12 19:14
218Fzyic: 一個人+1生日快樂 01/12 19:21
219Fa990401: 生日快樂 01/12 19:23
220Fcircums: 生日快樂 01/12 19:26
221Feb3pb3ey83: 生日快樂 01/12 19:43
222Fctwt: 生日快樂 01/12 19:52
223Fbryantmonkey: 生日快樂 01/12 19:52
224Fthenolet: 我也一個人 沒關係ㄉ 01/12 19:52
225Fassassinje: 生日快樂 01/12 20:11
226Fdaye2012: 死肥宅過什麼生日 01/12 20:15
227Fandy84118: 推 01/12 20:19
228Fqw5980162: 錢 01/12 20:21
229Frobert0805: 生日快樂,天天快樂!!! 01/12 20:30
230Fnura: 生日快樂 01/12 20:38
231Fabk1229: 生日快樂 01/12 21:00
232FAaronGordon: 生日快樂 01/12 21:17
234Fdon1119: 錢 01/12 23:05
235Fchiaomaster: 你會在意這種事,就代表你太年輕 01/13 01:18
236Fstw0975: 生日快樂 01/13 02:02
237Fjimhall: 推 01/13 02:51
238Fgrady112: 同天生日 我也今年頭次體會ㄧ個人 01/13 04:59
239FpumpkinYF: 生日快樂喔 01/13 06:10
240Fholypoly: 生日快樂 01/13 12:17
241Fsaint01: 生日快樂 01/13 13:33
看更多 poorcookie 的文章,或回到 gossiping 看板

[問卦] 有沒有生日一個人的八卦  ⋅  有 0 則留言。

熱門看板

八卦板 政黑板 英雄聯盟 動漫板 表特板(beauty) 陸劇板 台灣籃球 股票板 韓星板 台灣軍武板 中國綜藝板 韓流板 韓國綜藝板 NBA

最新留言

Re: [問卦] 說真的,你們支持台獨嗎? 张喆(匿名) : 其實說的已經很清楚了,論壇帶風向的人太多,台灣人要自己思考後路
[問卦] 說真的,你們支持台獨嗎? bobobo(匿名) : 支持個毛線,經濟經濟不行,軍事軍事不行,獨立了去舔美嗎?
[問卦] 大家覺得是不是該早點統一? Oee(匿名) : 台湾本来就不是中国人啊!台畜贱种是东南亚矮黑和倭奴脚盆人的混血低等贱种!但是,台湾岛是中国的,我们说的统一也只是收腹台湾
[問卦] 中國解放軍真的會說打就打嗎? yang(匿名) : 台湾啊台湾,活在自己的想象中,而看不见正在发生的事情, 悲哀啊。自己想想吧,2018年之前,多少人认为大陆碰到美国就怕,
[臉書] 侯漢廷 evj(匿名) : 看人不喜欢,就一阵乱喷。讨论40条,一个就事论事的都没有。如果PPT乡民真的能代表台湾人素质的话。这大概是大陆初中生开班
[新聞] 我故宮出借顏真卿「祭侄文稿」給日 陸 xuxing1218 : 傻逼们还美呢!如果大陆媒体不报道这个事情,大陆老百姓没几个知道的。这么报道为什么?同仇敌忾!你们还在这里没事挑逗老虎,大
[問卦] 在客運上被搶位子 xuxing1218 : 哈哈哈哈,台湾也有这事情呀?!大陆管这个叫做霸座,新民法对这个认定是违法行为了。现在是进入黑名单,罚款200元RMB。有
[問卦]覺青為何天天幻想祖國經濟崩潰 哈哈哈哈回家斤斤计较(匿名) : 两岸猿声啼不住,轻舟已过万重山。
Re: [閒聊] 各地雞蛋缺貨情形 葉葉(匿名) : 今早去小七買茶葉蛋,店員說缺貨,長這麼大第一次聽到
[新聞] 蘇貞昌第一份公文:核定太空計畫251億 散仙 : 韓團隊補洞「沒滿月又破」品質遭質疑
[新聞] 韓國瑜團隊補洞「沒滿月又破」品質遭質疑 007(匿名) : 綠蛆媒體和綠蛆廠公最擅長造謠抹黑和斷章取義。12月20日補好的路,罵12月25日上任的韓國瑜,綠蛆媒體和綠蛆廠公果然是宇
Re: [爆卦] 看到了一種感動 中國人對共產黨的反撲! 奥威尔笔下成为现实(匿名) : 一个养猪场的地方,通过各种手段,终于让中国人越来越不敢说话了。
[新聞] 禁用華為!工研院開第一槍 15日中午起全 奥威尔笔下成为现实(匿名) : 我的wechat被封了,这个令人绝望的地方。 捂住嘴巴不许说话 人人都是木头人 对明白人进行举报